Regional Weather Roundup
Issued by NWS

Home | Current Version | Previous Version | Graphics & Text | Print | Product List | Glossary Off
Versions: 1 2 3 4 5 6 7 8 9 10 11 12 13 14 15 16 17 18 19 20 21 22 23 24 25 26 27 28 29 30 31 32 33 34 35 36 37 38 39 40 41 42 43 44 45 46 47 48 49 50

000
ASUS43 KLSX 040157
RWRMO

WEATHER SUMMARY FOR MISSOURI
NATIONAL WEATHER SERVICE SPRINGFIELD MO
900 PM CDT THU SEP 03 2015

NOTE: "FAIR" INDICATES FEW OR NO CLOUDS BELOW 12,000 FEET WITH NO
       SIGNIFICANT WEATHER AND/OR OBSTRUCTIONS TO VISIBILITY.
       CURRENT SKY AND/OR WEATHER CONDITIONS ARE NOT AVAILABLE FOR
       CHILLICOTHE AND FARMINGTON.

MOZ001>031-035>038-043-044-053-054-040300-
...NORTHERN AND WESTERN MISSOURI...

CITY           SKY/WX    TMP DP  RH WIND       PRES   REMARKS
KANSAS CTY INT CLEAR     76  67  73 S8        29.90R
LEE`S SUMMIT   CLEAR     81  66  60 S6        29.92R
ST JOSEPH      CLEAR     79  69  71 S8        29.87R

$$
MOZ066>068-077>081-088>096-101>105-040300-
...SOUTHWEST MISSOURI...

CITY           SKY/WX    TMP DP  RH WIND       PRES   REMARKS
SPRINGFIELD    PTCLDY    78  68  71 SE5       29.95R
JOPLIN         CLEAR     77  70  79 SE3       29.92R

$$
MOZ032>034-039>042-045>050-055>058-069>072-040300-
...CENTRAL MISSOURI...

CITY           SKY/WX    TMP DP  RH WIND       PRES   REMARKS
COLUMBIA       NOT AVBL
JEFFERSON CITY CLEAR     80  70  71 E3        29.91R
ROLLA          CLEAR     76  67  73 S6        29.95R
SEDALIA        CLEAR     79  68  69 S5        29.93R
WARRENSBURG    CLEAR     79  68  69 SE3       29.91R

$$
MOZ051-052-059>065-040300-
...EAST CENTRAL MISSOURI...

CITY           SKY/WX    TMP DP  RH WIND       PRES   REMARKS
ST LOUIS INTL  PTCLDY    86  66  51 SW3       29.94R

$$
MOZ072>076-082>087-097>100-106>115-040300-
...SOUTH CENTRAL AND SOUTHEAST MISSOURI...

CITY           SKY/WX    TMP DP  RH WIND       PRES   REMARKS
CAPE GIRARDEAU CLEAR     77  71  82 NE3       29.94R
POPLAR BLUFF   CLEAR     75  72  90 CALM      29.93R
WEST PLAINS    CLEAR     74  69  85 CALM      29.99R

$$



USA.gov is the U.S. government's official web portal to all federal, state and local government web resources and services.